| time (UTC) | temp F | wind direction | speed MPH | gust MPH | rain 1hr in | rain 24hr in | rain mn in | humidity % | barometer mb |
| 20260504223930 | 80 | 184 | 3.0 | 3.0 | 0.00 | 0.00 | 0.00 | 42 | 1005.5 |
| 20260504223426 | 80 | 249 | 2.0 | 3.0 | 0.00 | 0.00 | 0.00 | 41 | 1005.5 |
| 20260504222922 | 80 | 281 | 1.0 | 1.0 | 0.00 | 0.00 | 0.00 | 41 | 1005.5 |
| 20260504222420 | 81 | 270 | 1.0 | 1.0 | 0.00 | 0.00 | 0.00 | 41 | 1005.5 |
| 20260504221917 | 81 | 175 | 2.0 | 5.0 | 0.00 | 0.00 | 0.00 | 40 | 1005.1 |
| 20260504221414 | 81 | 248 | 1.0 | 1.0 | 0.00 | 0.00 | 0.00 | 40 | 1005.5 |
| 20260504220911 | 81 | 164 | 2.0 | 2.0 | 0.00 | 0.00 | 0.00 | 40 | 1005.1 |
| 20260504220408 | 81 | 286 | 0.0 | 1.0 | 0.00 | 0.00 | 0.00 | 39 | 1005.5 |
| 20260504215905 | 82 | 235 | 2.0 | 3.0 | 0.00 | 0.00 | 0.00 | 40 | 1005.5 |
| 20260504215401 | 82 | 267 | 2.0 | 3.0 | 0.00 | 0.00 | 0.00 | 38 | 1005.5 |
| 20260504214857 | 82 | 162 | 4.0 | 6.0 | 0.00 | 0.00 | 0.00 | 37 | 1005.1 |
| 20260504214354 | 82 | 277 | 3.0 | 3.0 | 0.00 | 0.00 | 0.00 | 38 | 1005.5 |
| 20260504213851 | 82 | 183 | 3.0 | 3.0 | 0.00 | 0.00 | 0.00 | 37 | 1005.9 |
| 20260504213347 | 83 | 154 | 2.0 | 3.0 | 0.00 | 0.00 | 0.00 | 37 | 1005.5 |
| 20260504212844 | 83 | 153 | 4.0 | 6.0 | 0.00 | 0.00 | 0.00 | 36 | 1005.5 |
| 20260504212340 | 83 | 154 | 3.0 | 3.0 | 0.00 | 0.00 | 0.00 | 37 | 1005.5 |
| 20260504211838 | 83 | 141 | 5.0 | 7.0 | 0.00 | 0.00 | 0.00 | 37 | 1005.5 |
| 20260504211334 | 83 | 262 | 2.0 | 2.0 | 0.00 | 0.00 | 0.00 | 38 | 1005.5 |
| 20260504210832 | 83 | 178 | 7.0 | 10.0 | 0.00 | 0.00 | 0.00 | 36 | 1005.9 |
| 20260504210329 | 83 | 163 | 4.0 | 5.0 | 0.00 | 0.00 | 0.00 | 37 | 1005.5 |
| 20260504205826 | 83 | 169 | 5.0 | 6.0 | 0.00 | 0.00 | 0.00 | 36 | 1005.9 |
| 20260504205323 | 83 | 27 | 2.0 | 2.0 | 0.00 | 0.00 | 0.00 | 37 | 1005.5 |
| 20260504204821 | 84 | 188 | 3.0 | 3.0 | 0.00 | 0.00 | 0.00 | 36 | 1005.9 |
| 20260504204320 | 84 | 243 | 5.0 | 7.0 | 0.00 | 0.00 | 0.00 | 36 | 1005.9 |
| 20260504203819 | 84 | 189 | 5.0 | 6.0 | 0.00 | 0.00 | 0.00 | 37 | 1005.9 |
| 20260504203315 | 83 | 300 | 1.0 | 1.0 | 0.00 | 0.00 | 0.00 | 36 | 1006.3 |
| 20260504202810 | 83 | 175 | 2.0 | 3.0 | 0.00 | 0.00 | 0.00 | 36 | 1006.3 |
| 20260504202308 | 84 | 136 | 3.0 | 7.0 | 0.00 | 0.00 | 0.00 | 36 | 1006.3 |
| 20260504201805 | 84 | 34 | 2.0 | 3.0 | 0.00 | 0.00 | 0.00 | 35 | 1006.3 |
| 20260504201302 | 84 | 165 | 5.0 | 7.0 | 0.00 | 0.00 | 0.00 | 36 | 1005.9 |
| 20260504200800 | 84 | 224 | 2.0 | 2.0 | 0.00 | 0.00 | 0.00 | 37 | 1005.9 |
| 20260504200256 | 83 | 193 | 3.0 | 6.0 | 0.00 | 0.00 | 0.00 | 36 | 1006.3 |
| 20260504195752 | 83 | 239 | 3.0 | 5.0 | 0.00 | 0.00 | 0.00 | 37 | 1006.3 |
| 20260504195248 | 83 | 297 | 4.0 | 6.0 | 0.00 | 0.00 | 0.00 | 36 | 1006.6 |
| 20260504194745 | 83 | 109 | 2.0 | 3.0 | 0.00 | 0.00 | 0.00 | 38 | 1005.9 |
| 20260504194241 | 84 | 233 | 1.0 | 2.0 | 0.00 | 0.00 | 0.00 | 36 | 1006.3 |
| 20260504193738 | 83 | 148 | 6.0 | 10.0 | 0.00 | 0.00 | 0.00 | 37 | 1006.3 |
| 20260504193235 | 84 | 155 | 3.0 | 6.0 | 0.00 | 0.00 | 0.00 | 36 | 1006.3 |
| 20260504192733 | 84 | 268 | 1.0 | 1.0 | 0.00 | 0.00 | 0.00 | 40 | 1006.3 |
| 20260504192231 | 84 | 209 | 10.0 | 13.0 | 0.00 | 0.00 | 0.00 | 36 | 1006.6 |
| 20260504191730 | 83 | 169 | 3.0 | 3.0 | 0.00 | 0.00 | 0.00 | 38 | 1006.6 |
| 20260504191226 | 82 | 177 | 6.0 | 9.0 | 0.00 | 0.00 | 0.00 | 39 | 1006.3 |
| 20260504190721 | 81 | 219 | 2.0 | 3.0 | 0.00 | 0.00 | 0.00 | 39 | 1006.6 |
| 20260504190218 | 82 | 182 | 6.0 | 7.0 | 0.00 | 0.00 | 0.00 | 39 | 1006.6 |
| 20260504185715 | 82 | 206 | 2.0 | 3.0 | 0.00 | 0.00 | 0.00 | 39 | 1006.9 |
| 20260504185212 | 82 | 177 | 4.0 | 5.0 | 0.00 | 0.00 | 0.00 | 41 | 1006.9 |
| 20260504184708 | 83 | 214 | 3.0 | 3.0 | 0.00 | 0.00 | 0.00 | 39 | 1006.9 |
| 20260504184203 | 83 | 345 | 0.0 | 0.0 | 0.00 | 0.00 | 0.00 | 38 | 1006.9 |
| 20260504183700 | 83 | 354 | 1.0 | 1.0 | 0.00 | 0.00 | 0.00 | 38 | 1006.9 |
| 20260504183157 | 82 | 265 | 0.0 | 1.0 | 0.00 | 0.00 | 0.00 | 40 | 1006.9 |
| 20260504182655 | 81 | 202 | 2.0 | 2.0 | 0.00 | 0.00 | 0.00 | 40 | 1007.3 |
| 20260504182152 | 80 | 242 | 2.0 | 2.0 | 0.00 | 0.00 | 0.00 | 41 | 1006.9 |
| 20260504181649 | 80 | 302 | 1.0 | 1.0 | 0.00 | 0.00 | 0.00 | 41 | 1007.3 |
| 20260504181147 | 81 | 202 | 7.0 | 10.0 | 0.00 | 0.00 | 0.00 | 40 | 1007.6 |
| 20260504180646 | 80 | 113 | 2.0 | 2.0 | 0.00 | 0.00 | 0.00 | 40 | 1007.3 |
| 20260504180144 | 80 | 174 | 4.0 | 3.0 | 0.00 | 0.00 | 0.00 | 40 | 1007.3 |
| 20260504175641 | 81 | 269 | 1.0 | 1.0 | 0.00 | 0.00 | 0.00 | 39 | 1007.3 |
| 20260504175137 | 82 | 216 | 3.0 | 2.0 | 0.00 | 0.00 | 0.00 | 38 | 1007.3 |
| 20260504174636 | 82 | 185 | 7.0 | 10.0 | 0.00 | 0.00 | 0.00 | 36 | 1007.6 |
| 20260504174132 | 83 | 159 | 5.0 | 8.0 | 0.00 | 0.00 | 0.00 | 38 | 1007.3 |
| 20260504173629 | 82 | 27 | 3.0 | 3.0 | 0.00 | 0.00 | 0.00 | 38 | 1006.9 |
| 20260504173127 | 82 | 174 | 2.0 | 2.0 | 0.00 | 0.00 | 0.00 | 37 | 1007.3 |
| 20260504172623 | 82 | 151 | 3.0 | 5.0 | 0.00 | 0.00 | 0.00 | 38 | 1007.3 |
| 20260504172120 | 82 | 183 | 7.0 | 8.0 | 0.00 | 0.00 | 0.00 | 38 | 1006.9 |
| 20260504171616 | 82 | 122 | 3.0 | 3.0 | 0.00 | 0.00 | 0.00 | 37 | 1006.9 |
| 20260504171114 | 81 | 36 | 2.0 | 2.0 | 0.00 | 0.00 | 0.00 | 39 | 1007.3 |
| 20260504170609 | 82 | 154 | 4.0 | 6.0 | 0.00 | 0.00 | 0.00 | 38 | 1007.3 |
| 20260504170107 | 81 | 245 | 3.0 | 3.0 | 0.00 | 0.00 | 0.00 | 38 | 1007.3 |
| 20260504150952 | 75 | 178 | 8.0 | 9.0 | 0.00 | 0.00 | 0.00 | 41 | 1008.0 |
| 20260504150449 | 75 | 166 | 5.0 | 8.0 | 0.00 | 0.00 | 0.00 | 43 | 1008.0 |
| 20260504140915 | 72 | 119 | 3.0 | 7.0 | 0.00 | 0.00 | 0.00 | 45 | 1009.0 |
| 20260504140411 | 72 | 164 | 4.0 | 5.0 | 0.00 | 0.00 | 0.00 | 46 | 1009.0 |
| 20260504130337 | 67 | 230 | 1.0 | 1.0 | 0.00 | 0.00 | 0.00 | 53 | 1009.3 |
| 20260504120300 | 59 | 308 | 0.0 | 0.0 | 0.00 | 0.00 | 0.00 | 76 | 1009.3 |
| 20260504110224 | 57 | 279 | 0.0 | 0.0 | 0.00 | 0.00 | 0.00 | 75 | 1009.6 |
| 20260504100148 | 57 | 279 | 0.0 | 0.0 | 0.00 | 0.00 | 0.00 | 79 | 1010.1 |
| 20260504090110 | 60 | 290 | 0.0 | 0.0 | 0.00 | 0.00 | 0.00 | 69 | 1010.1 |
| 20260504081540 | 60 | 289 | 0.0 | 0.0 | 0.00 | 0.00 | 0.00 | 72 | 1010.1 |
| 20260504081036 | 60 | 290 | 0.0 | 0.0 | 0.00 | 0.00 | 0.00 | 70 | 1010.1 |
| 20260504080533 | 60 | 289 | 0.0 | 0.0 | 0.00 | 0.00 | 0.00 | 70 | 1010.1 |
| 20260504050346 | 60 | 284 | 0.0 | 0.0 | 0.00 | 0.00 | 0.00 | 72 | 1011.1 |
| 20260504045843 | 60 | 284 | 0.0 | 0.0 | 0.00 | 0.00 | 0.00 | 73 | 1011.1 |
| 20260504045338 | 59 | 284 | 0.0 | 0.0 | 0.00 | 0.00 | 0.00 | 72 | 1011.4 |
| 20260504044835 | 59 | 283 | 0.0 | 0.0 | 0.00 | 0.00 | 0.00 | 74 | 1011.1 |
| 20260504044333 | 59 | 284 | 0.0 | 0.0 | 0.00 | 0.00 | 0.00 | 74 | 1011.1 |
| 20260504043830 | 59 | 283 | 0.0 | 0.0 | 0.00 | 0.00 | 0.00 | 74 | 1011.4 |
| 20260504043327 | 59 | 283 | 0.0 | 0.0 | 0.00 | 0.00 | 0.00 | 75 | 1011.4 |
| 20260504042824 | 59 | 304 | 0.0 | 0.0 | 0.00 | 0.00 | 0.00 | 75 | 1011.4 |
| 20260504042320 | 59 | 304 | 0.0 | 0.0 | 0.00 | 0.00 | 0.00 | 76 | 1011.4 |
| 20260504041816 | 58 | 304 | 0.0 | 0.0 | 0.00 | 0.00 | 0.00 | 77 | 1011.8 |
| 20260504041312 | 58 | 304 | 0.0 | 0.0 | 0.00 | 0.00 | 0.00 | 78 | 1011.4 |
| 20260504040809 | 58 | 304 | 0.0 | 0.0 | 0.00 | 0.00 | 0.00 | 78 | 1011.4 |
| 20260504040307 | 58 | 304 | 0.0 | 0.0 | 0.00 | 0.00 | 0.00 | 78 | 1011.8 |
| 20260504035803 | 58 | 304 | 0.0 | 0.0 | 0.00 | 0.00 | 0.00 | 78 | 1011.4 |
| 20260504035300 | 58 | 304 | 0.0 | 0.0 | 0.00 | 0.00 | 0.00 | 78 | 1011.8 |
| 20260504034757 | 58 | 304 | 0.0 | 0.0 | 0.00 | 0.00 | 0.00 | 79 | 1012.1 |
| 20260504034254 | 58 | 304 | 0.0 | 0.0 | 0.00 | 0.00 | 0.00 | 79 | 1011.8 |
| 20260504033751 | 58 | 304 | 0.0 | 0.0 | 0.00 | 0.00 | 0.00 | 79 | 1011.8 |
| 20260504033249 | 58 | 304 | 0.0 | 0.0 | 0.00 | 0.00 | 0.00 | 79 | 1011.8 |
| 20260504032745 | 58 | 304 | 0.0 | 0.0 | 0.00 | 0.00 | 0.00 | 79 | 1011.8 |
| 20260504032242 | 58 | 304 | 0.0 | 0.0 | 0.00 | 0.00 | 0.00 | 78 | 1011.8 |
| 20260504031739 | 58 | 304 | 0.0 | 0.0 | 0.00 | 0.00 | 0.00 | 78 | 1011.8 |
| 20260504031237 | 58 | 304 | 0.0 | 0.0 | 0.00 | 0.00 | 0.00 | 78 | 1011.8 |
| 20260504030732 | 58 | 304 | 0.0 | 0.0 | 0.00 | 0.00 | 0.00 | 78 | 1012.1 |
| 20260504030230 | 58 | 304 | 0.0 | 0.0 | 0.00 | 0.00 | 0.00 | 77 | 1011.8 |
| 20260504025726 | 58 | 304 | 0.0 | 0.0 | 0.00 | 0.00 | 0.00 | 78 | 1011.8 |
| 20260504025223 | 58 | 304 | 0.0 | 0.0 | 0.00 | 0.00 | 0.00 | 78 | 1012.1 |
| 20260504024720 | 58 | 304 | 1.0 | 1.0 | 0.00 | 0.00 | 0.00 | 78 | 1012.1 |
| 20260504024216 | 59 | 304 | 0.0 | 0.0 | 0.00 | 0.00 | 0.00 | 77 | 1012.1 |
| 20260504023713 | 59 | 304 | 0.0 | 0.0 | 0.00 | 0.00 | 0.00 | 75 | 1011.8 |
| 20260504023209 | 59 | 304 | 0.0 | 0.0 | 0.00 | 0.00 | 0.00 | 75 | 1011.8 |
| 20260504022706 | 59 | 304 | 0.0 | 0.0 | 0.00 | 0.00 | 0.00 | 74 | 1011.8 |
| 20260504022202 | 60 | 304 | 0.0 | 0.0 | 0.00 | 0.00 | 0.00 | 73 | 1012.1 |
| 20260504021700 | 60 | 304 | 0.0 | 0.0 | 0.00 | 0.00 | 0.00 | 72 | 1011.8 |
| 20260504021156 | 60 | 304 | 0.0 | 0.0 | 0.00 | 0.00 | 0.00 | 71 | 1012.1 |
| 20260504020653 | 60 | 304 | 0.0 | 0.0 | 0.00 | 0.00 | 0.00 | 70 | 1012.1 |
| 20260504020149 | 61 | 304 | 0.0 | 0.0 | 0.00 | 0.00 | 0.00 | 69 | 1011.8 |
| 20260504015646 | 61 | 304 | 0.0 | 0.0 | 0.00 | 0.00 | 0.00 | 69 | 1011.8 |
| 20260504015142 | 61 | 304 | 0.0 | 0.0 | 0.00 | 0.00 | 0.00 | 69 | 1012.1 |
| 20260504014638 | 62 | 304 | 0.0 | 0.0 | 0.00 | 0.00 | 0.00 | 68 | 1012.1 |
| 20260504014135 | 62 | 304 | 0.0 | 0.0 | 0.00 | 0.00 | 0.00 | 67 | 1011.8 |
| 20260504013633 | 62 | 304 | 0.0 | 0.0 | 0.00 | 0.00 | 0.00 | 65 | 1011.8 |
| 20260504013130 | 63 | 304 | 0.0 | 0.0 | 0.00 | 0.00 | 0.00 | 63 | 1012.1 |
| 20260504012627 | 63 | 304 | 0.0 | 0.0 | 0.00 | 0.00 | 0.00 | 62 | 1011.8 |
| 20260504012125 | 64 | 304 | 0.0 | 0.0 | 0.00 | 0.00 | 0.00 | 61 | 1011.8 |
| 20260504011621 | 64 | 304 | 0.0 | 0.0 | 0.00 | 0.00 | 0.00 | 60 | 1011.8 |
| 20260504011118 | 65 | 304 | 0.0 | 0.0 | 0.00 | 0.00 | 0.00 | 59 | 1011.8 |
| 20260504010614 | 66 | 304 | 0.0 | 0.0 | 0.00 | 0.00 | 0.00 | 58 | 1011.8 |
| 20260504010110 | 66 | 304 | 0.0 | 0.0 | 0.00 | 0.00 | 0.00 | 56 | 1011.8 |
| 20260504005607 | 67 | 304 | 0.0 | 0.0 | 0.00 | 0.00 | 0.00 | 55 | 1011.8 |
| 20260504005104 | 68 | 304 | 0.0 | 0.0 | 0.00 | 0.00 | 0.00 | 52 | 1011.8 |
| 20260504004602 | 68 | 304 | 0.0 | 0.0 | 0.00 | 0.00 | 0.00 | 52 | 1011.8 |
| 20260504004059 | 69 | 304 | 0.0 | 0.0 | 0.00 | 0.00 | 0.00 | 49 | 1011.8 |
| 20260504003554 | 69 | 304 | 0.0 | 0.0 | 0.00 | 0.00 | 0.00 | 48 | 1011.8 |
| 20260504003051 | 70 | 304 | 0.0 | 0.0 | 0.00 | 0.00 | 0.00 | 48 | 1011.8 |
| 20260504002548 | 71 | 304 | 0.0 | 0.0 | 0.00 | 0.00 | 0.00 | 47 | 1011.8 |
| 20260504002046 | 72 | 304 | 0.0 | 0.0 | 0.00 | 0.00 | 0.00 | 44 | 1011.8 |
| 20260504001544 | 72 | 304 | 0.0 | 0.0 | 0.00 | 0.00 | 0.00 | 43 | 1011.8 |
| 20260504001039 | 73 | 304 | 0.0 | 0.0 | 0.00 | 0.00 | 0.00 | 40 | 1012.1 |
| 20260504000537 | 73 | 304 | 0.0 | 0.0 | 0.00 | 0.00 | 0.00 | 40 | 1011.8 |
| 20260504000034 | 74 | 305 | 0.0 | 0.0 | 0.00 | 0.00 | 0.00 | 38 | 1011.8 |
| 20260503235532 | 74 | 304 | 0.0 | 0.0 | 0.00 | 0.00 | 0.00 | 36 | 1011.8 |
| 20260503235029 | 75 | 293 | 0.0 | 0.0 | 0.00 | 0.00 | 0.00 | 36 | 1011.8 |
| 20260503234526 | 75 | 295 | 0.0 | 0.0 | 0.00 | 0.00 | 0.00 | 35 | 1012.1 |
| 20260503234025 | 76 | 338 | 0.0 | 0.0 | 0.00 | 0.00 | 0.00 | 33 | 1011.8 |
| 20260503233521 | 77 | 282 | 0.0 | 0.0 | 0.00 | 0.00 | 0.00 | 33 | 1011.8 |
| 20260503233017 | 77 | 301 | 0.0 | 1.0 | 0.00 | 0.00 | 0.00 | 32 | 1011.8 |
| 20260503232514 | 78 | 191 | 2.0 | 5.0 | 0.00 | 0.00 | 0.00 | 30 | 1011.8 |
| 20260503232012 | 78 | 41 | 2.0 | 2.0 | 0.00 | 0.00 | 0.00 | 30 | 1012.1 |
| 20260503231509 | 78 | 307 | 1.0 | 2.0 | 0.00 | 0.00 | 0.00 | 28 | 1011.8 |
| 20260503231006 | 78 | 219 | 2.0 | 3.0 | 0.00 | 0.00 | 0.00 | 29 | 1012.1 |
| 20260503230502 | 78 | 291 | 0.0 | 0.0 | 0.00 | 0.00 | 0.00 | 29 | 1011.8 |
| 20260503230000 | 78 | 231 | 3.0 | 3.0 | 0.00 | 0.00 | 0.00 | 30 | 1012.1 |
| 20260503225456 | 79 | 277 | 1.0 | 2.0 | 0.00 | 0.00 | 0.00 | 33 | 1012.1 |
| 20260503224952 | 79 | 273 | 0.0 | 0.0 | 0.00 | 0.00 | 0.00 | 31 | 1011.8 |
| 20260503224449 | 79 | 121 | 2.0 | 2.0 | 0.00 | 0.00 | 0.00 | 31 | 1012.1 |